This demonstration page uses our WeatherBlox Daily Observations layout. Learn more.

Left ArrowRight Arrow

Hourly Observations for June 21, 2021

Temp ( °F °C ) Dew Point ( °F °C ) Humidity (%) Winds ( mph kmh ) Pressure ( in mb ) Visibility ( mi km ) Precip ( " mm )
12:53 am 00:53 Clear 48 8.9 40 4.4 74 74 N N/A 30.14 1021 10 16 N/A
1:53 am 01:53 Clear 48 8.9 40 4.4 74 74 N N/A 30.13 1020 10 16 N/A
2:53 am 02:53 Clear 43 6.1 38 3.3 82 82 SSE 5 7 30.13 1020 10 16 N/A
3:53 am 03:53 Clear 42 5.6 37 2.8 82 82 NNE 3 6 30.12 1020 10 16 N/A
4:53 am 04:53 Clear 40 4.4 37 2.8 89 89 SSE 5 7 30.12 1020 10 16 N/A
5:53 am 05:53 Partly Cloudy 44 6.7 39 3.9 83 83 N N/A 30.11 1020 10 16 N/A
6:53 am 06:53 Sunny 49 9.4 41 5 74 74 N N/A 30.10 1019 10 16 N/A
7:53 am 07:53 Sunny 55 12.8 47 8.3 74 74 SW 8 13 30.09 1019 10 16 N/A
8:53 am 08:53 Sunny 64 17.8 48 8.9 56 56 SW 13 20 30.06 1018 10 16 N/A
9:53 am 09:53 Sunny 69 20.6 47 8.3 45 45 SW 12 19 30.04 1017 10 16 N/A
10:53 am 10:53 Sunny 71 21.7 47 8.3 42 42 SW 13 20 30.03 1017 10 16 N/A
11:53 am 11:53 Sunny 74 23.3 43 6.1 33 33 W 6 9 30.00 1016 10 16 N/A
12:53 pm 12:53 Sunny 76 24.4 39 3.9 26 26 undefined N/A 29.97 1015 10 16 N/A
1:53 pm 13:53 Sunny 77 25 38 3.3 24 24 VRB 3 6 29.93 1014 10 16 N/A
2:53 pm 14:53 Sunny 80 26.7 38 3.3 22 22 SW 8 13 29.90 1013 10 16 N/A
3:53 pm 15:53 Sunny 80 26.7 32 undefined 17 17 VRB 3 6 29.88 1012 10 16 N/A
4:53 pm 16:53 Sunny 82 27.8 34 1.1 18 18 WSW 9 15 29.85 1011 10 16 N/A
5:53 pm 17:53 Sunny 82 27.8 33 0.6 17 17 SSW 8 13 29.82 1010 10 16 N/A
6:53 pm 18:53 Sunny 82 27.8 35 1.7 18 18 SSW 9 15 29.78 1008 10 16 N/A
7:53 pm 19:53 Sunny 81 27.2 30 -1.1 16 16 N N/A 29.76 1008 10 16 N/A
8:53 pm 20:53 Sunny 76 24.4 37 2.8 24 24 SE 3 6 29.74 1007 10 16 N/A
9:53 pm 21:53 Clear 66 18.9 44 6.7 45 45 SE 6 9 29.75 1008 10 16 N/A
10:53 pm 22:53 Clear 61 16.1 40 4.4 46 46 E 3 6 29.75 1008 10 16 N/A
11:53 pm 23:53 Clear 64 17.8 40 4.4 41 41 SW 3 6 29.73 1007 10 16 N/A

Powered by AerisWeather